Wind_Speed
15 16 15 15 15 14 13 13 12 11 10 8 7 6 6 5 5 4 5 5 6 7 7 6 6 5 5 4 3 4 3 2 2 2 2 2 3 3 4 4 4 4 5 5
15 16 16 17 17 16 15 14 13 13 13 11 10 9 8 7 6 5 5 5 5 6 6 6 6 6 5 5 4 3 3 2 1 1 0 0 1 2 3 3 3 4 4 5
17 17 17 17 17 16 16 16 15 16 15 14 12 10 10 9 8 7 6 6 6 6 6 6 6 6 6 5 5 4 3 3 2 2 2 2 2 3 3 3 4 4 5 5
18 19 18 18 18 17 17 18 18 17 16 14 14 12 12 11 9 9 8 8 8 8 7 7 7 6 6 6 6 5 5 5 5 4 4 4 4 4 4 4 5 5 6 6
18 19 19 19 19 19 19 19 19 19 18 17 16 15 14 14 12 10 10 9 9 9 8 8 7 7 8 8 7 7 6 6 6 6 6 5 5 6 6 6 6 6 7 7
18 19 20 20 20 21 20 20 20 20 19 20 18 17 15 15 14 12 12 12 11 11 11 10 9 9 9 9 9 8 8 8 8 8 8 8 7 8 8 8 8 8 8 8
19 20 20 20 21 21 20 19 19 19 19 20 19 19 17 17 16 15 15 15 14 13 12 12 11 12 11 11 10 10 9 9 9 9 10 9 9 9 10 10 10 10 10 10
19 20 21 21 21 21 21 20 19 18 18 19 21 21 19 18 17 16 16 16 15 15 14 14 13 13 12 12 12 11 11 11 11 11 11 11 12 11 12 12 12 12 12 12
20 22 22 22 21 22 22 22 21 21 21 21 21 21 20 20 19 18 18 18 17 17 16 16 15 15 14 14 14 13 12 12 12 13 13 12 13 13 14 14 14 13 13 13
23 23 23 23 23 23 23 22 22 22 22 22 22 22 21 21 19 19 20 20 19 19 18 18 17 17 17 16 15 14 14 13 14 15 15 14 14 14 15 15 14 15 15 15
25 24 24 25 25 24 25 25 25 25 25 23 22 21 21 21 20 19 19 20 19 20 20 20 19 18 18 18 17 16 16 15 16 16 16 16 16 16 15 15 16 17 17 17
26 26 26 27 27 27 27 27 27 27 27 26 25 24 23 22 21 20 20 21 21 22 22 22 22 21 20 20 19 18 18 18 18 18 18 18 18 18 18 17 18 19 19 19
27 27 26 25 27 30 30 29 29 29 29 28 27 26 26 25 24 22 22 22 23 23 24 24 24 24 23 22 21 20 20 20 20 20 20 20 20 20 20 19 20 21 21 22
28 28 27 25 25 28 30 30 31 31 30 30 30 28 27 27 26 25 25 24 25 25 26 26 26 25 25 23 23 22 22 22 22 22 22 22 22 22 22 22 23 23 24 24
30 31 30 30 30 30 31 31 31 32 33 31 30 30 29 30 29 28 27 27 26 27 27 28 28 28 27 26 25 24 24 23 23 24 24 24 24 24 24 24 25 26 27 27
31 32 31 31 31 31 31 31 32 32 33 33 32 31 29 30 30 30 30 30 29 29 29 29 30 30 30 28 27 26 26 26 26 26 26 27 27 26 27 27 27 28 29 30
32 32 32 31 32 32 33 32 32 33 33 33 33 32 32 31 31 31 31 32 32 32 30 30 30 31 31 30 30 29 29 28 29 29 29 29 28 28 29 29 30 31 31 32
32 32 32 32 32 33 32 32 32 33 33 33 34 34 33 32 31 31 32 32 33 33 32 32 32 32 33 32 32 31 31 31 31 31 31 31 31 30 31 31 32 32 32 33
32 32 32 32 32 32 32 32 32 32 32 32 33 33 33 32 32 32 32 32 32 33 33 33 34 34 34 34 34 33 33 33 33 33 33 33 33 34 34 33 33 33 33 34
30 31 31 31 31 31 32 32 31 31 32 32 32 33 32 32 32 33 33 33 33 34 34 34 34 35 35 35 34 35 35 35 35 34 34 35 35 35 35 35 35 34 35 34
29 30 31 31 32 32 32 32 30 31 33 33 33 33 33 32 33 33 34 34 35 35 35 35 34 34 35 35 35 36 37 37 36 36 36 36 37 37 37 37 37 36 36 37
29 30 31 31 31 32 34 33 33 33 33 33 33 32 32 32 32 33 33 34 34 35 35 35 35 35 35 35 36 37 37 37 37 38 37 37 38 39 39 39 39 39 38 38
29 29 30 31 32 32 33 34 33 33 33 33 34 33 32 32 32 33 33 33 34 34 35 36 36 36 36 36 37 38 38 38 39 39 39 38 38 39 39 39 39 39 39 38
28 28 29 30 30 30 31 33 33 32 32 33 34 33 33 33 32 33 33 33 33 34 34 35 35 35 36 36 37 38 38 38 39 39 39 38 38 39 39 39 38 38 38 37
28 28 28 29 30 30 31 32 32 32 32 32 32 33 32 33 33 33 33 33 34 34 34 34 34 35 35 36 37 37 38 38 38 38 38 38 39 38 38 39 39 38 37 36
27 28 28 28 29 29 29 31 32 32 32 32 33 33 33 33 32 32 32 32 32 33 34 34 34 34 35 36 36 37 37 37 38 38 38 38 38 38 38 37 38 38 37 37
Wind_Direction
238 235 234 234 231 230 234 236 244 250 254 249 249 257 273 286 303 323 344 356 357 4 11 11 9 6 10 10 9 11 11 20 50 94 105 120 138 142 160 164 165 173 182 190
240 237 233 231 231 233 237 242 247 251 254 254 253 261 267 271 282 293 306 324 337 343 352 355 350 345 343 348 352 348 348 353 16 44 352 221 201 193 185 191 197 204 204 204
239 240 237 235 234 236 240 244 246 248 254 257 260 269 271 269 271 280 286 291 306 313 321 323 325 325 326 324 326 320 307 314 316 305 292 277 258 242 232 231 231 229 225 226
237 239 237 237 237 239 244 247 249 252 253 261 262 265 269 268 270 274 276 279 289 291 294 297 302 305 310 306 304 302 293 292 293 282 271 268 264 258 259 253 245 241 240 243
242 240 239 239 240 242 243 247 249 251 251 252 258 262 264 265 268 270 273 274 281 282 283 278 282 289 294 293 290 288 287 288 281 275 275 276 265 260 261 258 254 251 248 251
243 242 240 240 242 245 246 249 251 252 250 251 253 257 260 263 265 264 265 268 274 276 276 271 269 275 280 283 282 283 285 283 278 271 271 269 266 267 265 263 261 259 256 254
245 244 244 243 244 246 246 247 252 253 252 254 255 256 257 258 259 261 264 267 269 271 270 266 266 268 272 275 274 277 278 279 276 272 269 266 262 263 266 266 261 260 260 261
246 246 247 246 245 246 245 244 244 247 253 258 261 260 260 262 261 263 264 265 265 266 266 263 268 269 270 271 270 271 273 273 270 271 270 267 267 270 268 263 260 259 262 263
243 244 248 247 246 246 247 245 244 247 250 253 256 262 262 262 262 262 262 262 263 264 266 265 264 266 267 270 267 266 268 270 271 271 272 271 272 273 271 267 265 261 263 265
244 244 246 247 246 246 246 247 246 244 250 255 261 264 265 266 264 263 262 262 261 260 261 262 259 262 264 266 268 267 267 268 269 272 272 272 272 272 272 267 264 264 264 265
246 245 246 247 246 249 248 247 247 247 248 253 260 263 263 265 264 261 260 260 260 257 257 258 258 260 263 264 264 265 266 269 270 271 271 272 270 270 271 266 262 265 266 266
248 247 247 247 249 249 250 251 251 251 253 252 254 260 264 264 263 261 260 259 259 255 255 256 257 259 261 264 264 264 264 266 269 270 270 271 272 271 270 267 263 264 265 265
248 249 251 254 254 250 250 251 252 252 254 256 258 261 265 263 261 259 259 259 257 256 255 256 257 259 261 261 261 262 264 266 268 269 269 270 272 270 268 268 265 264 264 265
248 249 247 247 249 254 254 254 253 252 253 257 258 258 260 263 260 257 257 257 256 254 255 255 256 258 259 259 259 261 262 265 267 268 269 270 271 269 268 268 268 266 264 265
251 252 251 249 249 252 254 254 254 254 253 255 258 260 260 261 261 258 256 256 257 256 256 256 256 256 256 258 258 259 261 263 265 268 270 271 270 269 268 268 267 266 266 265
251 252 253 254 253 254 254 254 256 256 255 256 257 258 260 260 260 259 258 257 258 257 256 257 257 256 256 257 258 258 260 262 264 266 268 270 269 269 269 268 268 268 268 267
251 252 254 256 257 258 257 256 256 256 256 257 258 260 261 262 262 262 261 259 258 258 256 256 256 254 256 257 259 259 259 261 264 266 268 270 270 270 271 270 270 270 270 269
253 253 255 256 258 259 259 259 258 257 257 257 258 260 261 262 262 261 261 261 260 259 257 256 255 255 256 258 259 260 260 261 264 267 269 270 271 272 272 273 272 270 270 271
255 255 256 257 259 260 260 260 258 258 258 258 258 259 261 261 261 261 260 260 259 258 258 258 256 255 256 257 258 259 261 261 263 265 267 268 270 272 273 272 272 270 270 272
256 255 255 256 257 259 262 261 259 259 260 258 259 259 260 260 260 261 260 259 258 258 258 258 259 259 258 257 258 259 260 262 263 264 265 267 268 271 271 271 272 270 269 271
256 257 257 258 259 259 261 262 261 260 261 260 261 260 260 260 261 261 261 260 259 259 260 260 260 260 259 258 258 258 260 261 262 263 265 267 268 269 270 270 270 270 270 272
257 259 259 258 259 260 260 261 261 262 262 262 263 263 263 262 261 261 261 261 260 260 261 262 262 261 259 259 260 260 261 262 262 263 264 266 267 268 269 268 268 269 272 272
257 257 259 259 259 262 261 262 262 263 262 262 264 265 265 264 263 262 262 261 261 261 262 262 261 261 260 260 261 262 262 262 262 264 265 266 267 267 267 267 267 268 270 271
257 257 258 259 261 262 262 261 261 262 262 262 263 264 265 265 263 263 263 263 263 263 263 262 262 262 262 262 262 262 262 262 263 264 265 266 267 265 264 266 267 268 269 270
259 259 260 260 262 264 262 261 261 261 262 261 262 262 263 264 264 263 264 264 265 264 262 262 262 261 262 262 263 262 262 263 263 264 265 265 267 267 267 267 266 267 269 270
259 261 262 262 262 265 264 261 261 261 261 261 262 264 263 262 265 264 265 266 265 263 262 261 260 261 261 262 263 262 261 261 262 263 263 264 265 266 267 267 267 267 268 269
Height
5892 5895 5897 5900 5901 5903 5905 5906 5908 5908 5908 5908 5909 5909 5909 5908 5907 5906 5905 5904 5903 5902 5900 5899 5898 5897 5896 5895 5894 5893 5892 5892 5891 5891 5891 5892 5892 5892 5892 5893 5893 5893 5893 5894
5889 5891 5894 5895 5897 5899 5901 5903 5905 5906 5905 5906 5907 5908 5907 5907 5907 5906 5905 5904 5903 5902 5901 5900 5898 5897 5896 5895 5894 5893 5893 5892 5892 5892 5892 5892 5892 5892 5893 5893 5893 5893 5893 5893
5886 5889 5889 5891 5894 5896 5898 5900 5902 5903 5903 5903 5905 5906 5906 5905 5905 5905 5904 5903 5902 5901 5900 5900 5898 5897 5896 5895 5894 5894 5893 5893 5892 5892 5892 5892 5892 5892 5892 5893 5893 5893 5893 5893
5882 5884 5886 5888 5890 5892 5894 5896 5897 5899 5900 5902 5903 5904 5904 5903 5903 5903 5902 5902 5901 5900 5899 5898 5898 5897 5896 5895 5894 5893 5893 5893 5892 5892 5892 5892 5892 5892 5892 5892 5892 5892 5892 5892
5878 5880 5882 5884 5886 5888 5890 5892 5893 5894 5896 5898 5899 5900 5902 5900 5900 5900 5900 5899 5899 5898 5897 5897 5896 5895 5894 5894 5893 5892 5892 5892 5892 5891 5891 5891 5891 5891 5891 5891 5891 5890 5890 5891
5874 5875 5877 5880 5882 5884 5886 5888 5889 5890 5892 5894 5895 5896 5898 5897 5897 5897 5897 5896 5896 5896 5895 5895 5894 5893 5893 5892 5891 5891 5890 5890 5890 5889 5889 5889 5889 5889 5889 5889 5889 5889 5888 5889
5870 5872 5873 5875 5877 5879 5881 5884 5886 5887 5889 5890 5891 5891 5893 5893 5893 5893 5893 5893 5892 5892 5892 5892 5891 5891 5891 5890 5889 5889 5889 5888 5888 5887 5887 5887 5886 5887 5887 5886 5887 5887 5887 5887
5866 5868 5869 5870 5873 5874 5876 5880 5883 5885 5887 5887 5885 5886 5888 5888 5887 5888 5888 5888 5888 5888 5888 5888 5888 5888 5887 5887 5887 5886 5886 5885 5885 5885 5885 5884 5884 5884 5884 5883 5883 5884 5884 5884
5862 5864 5864 5865 5867 5870 5871 5873 5876 5879 5879 5881 5881 5881 5882 5882 5882 5883 5883 5883 5884 5884 5884 5884 5884 5884 5884 5883 5883 5883 5883 5882 5882 5882 5881 5881 5881 5881 5880 5880 5880 5880 5880 5880
5855 5858 5859 5860 5862 5863 5866 5867 5869 5872 5873 5874 5876 5876 5877 5876 5877 5877 5878 5878 5878 5879 5879 5879 5880 5880 5879 5879 5879 5879 5879 5878 5878 5878 5878 5877 5877 5877 5876 5876 5876 5876 5876 5876
5849 5851 5853 5854 5855 5858 5860 5861 5862 5865 5867 5869 5871 5873 5870 5870 5871 5872 5872 5872 5873 5873 5874 5874 5875 5875 5875 5875 5875 5875 5874 5874 5874 5874 5873 5873 5873 5872 5872 5872 5872 5872 5872 5872
5842 5844 5846 5848 5849 5850 5852 5854 5856 5858 5859 5860 5863 5867 5864 5864 5864 5865 5866 5866 5867 5867 5868 5869 5869 5869 5869 5870 5870 5870 5870 5869 5869 5869 5869 5868 5868 5868 5867 5867 5867 5867 5867 5867
5835 5837 5840 5842 5844 5843 5844 5846 5848 5850 5851 5853 5855 5860 5856 5856 5857 5858 5859 5860 5860 5861 5862 5862 5863 5863 5863 5864 5864 5864 5865 5864 5864 5864 5863 5863 5863 5862 5862 5862 5861 5861 5861 5861
5827 5829 5832 5836 5836 5835 5836 5838 5839 5841 5843 5845 5847 5849 5849 5849 5849 5850 5851 5852 5853 5854 5854 5855 5856 5856 5857 5857 5858 5858 5859 5858 5858 5857 5857 5857 5857 5857 5856 5856 5856 5856 5856 5855
5818 5820 5822 5824 5825 5826 5828 5829 5830 5832 5834 5836 5838 5839 5840 5840 5841 5842 5843 5844 5845 5846 5846 5847 5848 5849 5850 5850 5851 5851 5852 5852 5851 5851 5851 5851 5851 5850 5850 5850 5850 5849 5849 5849
5809 5811 5813 5815 5816 5817 5818 5820 5822 5823 5824 5826 5828 5830 5831 5831 5832 5833 5834 5835 5836 5837 5838 5839 5839 5840 5841 5842 5843 5844 5844 5845 5844 5844 5844 5844 5843 5843 5843 5843 5842 5842 5842 5841
5800 5802 5804 5806 5807 5808 5809 5812 5813 5814 5815 5817 5818 5821 5821 5822 5823 5824 5825 5826 5827 5827 5828 5829 5830 5831 5833 5834 5835 5836 5836 5836 5836 5836 5836 5836 5836 5835 5835 5835 5834 5834 5833 5833
5791 5793 5795 5797 5798 5799 5803 5802 5803 5804 5805 5807 5808 5810 5811 5813 5814 5814 5815 5816 5817 5818 5819 5819 5820 5821 5823 5824 5825 5827 5827 5828 5828 5828 5828 5828 5828 5827 5827 5827 5826 5825 5825 5824
5781 5783 5785 5787 5788 5790 5792 5792 5794 5795 5796 5798 5799 5800 5802 5803 5804 5805 5805 5806 5807 5808 5809 5810 5810 5811 5812 5814 5815 5816 5817 5818 5819 5819 5819 5819 5819 5818 5818 5818 5817 5816 5816 5815
5772 5774 5776 5778 5779 5781 5783 5783 5784 5787 5786 5788 5789 5791 5792 5793 5795 5796 5796 5796 5797 5798 5799 5799 5800 5801 5802 5803 5804 5806 5807 5808 5809 5809 5809 5809 5809 5809 5809 5808 5808 5807 5806 5806
5764 5765 5767 5768 5769 5771 5773 5774 5776 5778 5778 5778 5779 5780 5782 5783 5785 5785 5785 5786 5787 5788 5788 5789 5790 5791 5792 5793 5794 5795 5796 5797 5798 5799 5799 5799 5799 5799 5799 5799 5798 5797 5796 5796
5755 5757 5758 5760 5761 5763 5762 5764 5766 5766 5767 5768 5769 5770 5771 5772 5773 5774 5774 5775 5776 5777 5778 5778 5779 5780 5781 5783 5784 5785 5785 5786 5787 5787 5788 5789 5789 5789 5788 5788 5788 5787 5786 5785
5746 5748 5749 5751 5753 5752 5753 5754 5755 5756 5757 5758 5759 5760 5761 5762 5762 5763 5764 5765 5765 5766 5767 5767 5768 5769 5771 5772 5773 5773 5774 5775 5775 5776 5777 5777 5777 5777 5777 5777 5777 5776 5775 5774
5737 5738 5740 5741 5742 5743 5743 5744 5745 5746 5747 5748 5749 5750 5751 5751 5752 5752 5753 5753 5754 5754 5755 5756 5756 5758 5759 5760 5761 5762 5763 5763 5764 5765 5765 5765 5766 5766 5766 5766 5765 5765 5765 5765
5729 5730 5730 5731 5732 5733 5734 5734 5735 5736 5737 5738 5739 5739 5740 5740 5740 5741 5741 5742 5742 5743 5744 5744 5745 5746 5747 5748 5749 5750 5751 5751 5752 5753 5754 5754 5754 5754 5754 5755 5755 5755 5755 5754
5720 5721 5721 5722 5723 5724 5724 5724 5725 5726 5727 5728 5728 5729 5729 5730 5730 5730 5730 5730 5731 5732 5732 5733 5734 5735 5736 5737 5738 5739 5740 5740 5741 5741 5742 5742 5743 5743 5744 5744 5744 5743 5743 5743